User: anonymous   Login
Location: Albany
(35.0000°S, 118.0000°E)
Time: 16:32:32
(UTC-04:00)
Language:

TRMM - Orbit

View from above orbital plane
View from above orbital plane
View from above satellite
View from above satellite

Ground track
Ground track

The orbit data is extracted from the following two-line orbital elements,

1 25063U 97074A   15150.26435916  .00342584  50682-4  54940-3 0  9997
2 25063 034.9456 322.6143 0008056 347.8481 195.7831 16.02450344999206
Epoch (UTC): 30 May 2015 06:20:40
Eccentricity: 0.0008056
inclination: 34.9456°
perigee height: 262 km
apogee height: 273 km
right ascension of ascending node: 322.6143°
argument of perigee: 347.8481°
revolutions per day: 16.02450344
mean anomaly at epoch: 195.7831°
orbit number at epoch: 99920

The dashed part of the orbit path shows where the satellite is in the earth's shadow,  

DLR